SCP
0 0 -0 -0 -0 -0 -0 -0 -0 -0 -0 -0 0 0 -0 -0 -0 -0 -0 -0 -0 -0 -0 -0 -0 -0 -0 -0 -0 -0 -0 -0 -0 -0 -0 -0 -0 -0 -0 -0 -0 -0 -0
-0 0 -0 -0 -0 -0 -0 -0 -0 -0 -0 -0 -0 -0 -0 -0 -0 -0 -0 -0 -0 -0 -0 -0 -0 -0 -0 -0 -0 -0 -0 -0 -0 0 -0 -0 -0 -0 -0 -0 -0 -0 -0
-0 -0 -0 -0 0 0 -0 -0 -0 -0 0 0 -0 -0 -0 -0 -0 -0 -0 -0 -0 -0 -0 -0 -0 -0 -0 -0 -0 -0 -0 -0 -0 0 -0 -0 -0 -0 -0 -0 -0 -0 -0
-0 0 -0 -0 -0 -0 -0 -0 -0 -0 -0 -0 -0 -0 -0 -0 -0 -0 -0 -0 -0 -0 -0 -0 -0 -0 -0 -0 -0 -0 -0 -0 -0 -0 -0 -0 -0 -0 -0 -0 -0 -0 -0
-0 0 0 -0 -0 -0 -0 -0 -0 -0 -0 -0 -0 -0 -0 -0 -0 -0 -0 -0 -0 -0 -0 -0 -0 -0 -0 -0 -0 -0 -0 -0 -0 -0 -0 -0 -0 -0 -0 -0 -0 -0 -0
-0 -0 -0 -0 -0 -0 -0 -0 -0 -0 -0 -0 -0 -0 -0 -0 -0 -0 -0 -0 -0 -0 -0 -0 -0 -0 -0 -0 -0 -0 -0 0 -0 -0 -0 -0 -0 -0 -0 -0 -0 -0 -0
-0 -0 -0 -0 -0 -0 -0 -0 -0 -0 -0 -0 -0 -0 -0 -0 -0 -0 -0 -0 -0 -0 -0 -0 -0 -0 -0 -0 -0 -0 -0 -0 -0 -0 -0 -0 -0 -0 -0 -0 -0 -0 -0
-0 -0 -0 -0 -0 -0 -0 -0 -0 -0 -0 -0 -0 -0 -0 -0 -0 -0 -0 -0 -0 -0 -0 -0 -0 -0 -0 -0 -0 -0 -0 -0 -0 -0 -0 -0 -0 -0 -0 -0 -0 -0 -0
-0 -0 -0 -0 -0 -0 -0 -0 -0 -0 -0 -0 -0 -0 -0 -0 -0 -0 -0 -0 -0 -0 -0 -0 -0 -0 -0 -0 -0 -0 -0 -0 -0 -0 -0 0 -0 -0 -0 -0 -0 -0 -0
-0 -0 -0 -0 -0 -0 -0 -0 -0 -0 -0 -0 -0 -0 -0 -0 -0 -0 -0 -0 -0 -0 -0 -0 -0 -0 -0 -0 -0 0 -0 -0 -0 -0 0 0 -0 -0 -0 -0 -0 -0 -0
-0 -0 -0 -0 -0 -0 -0 -0 -0 -0 -0 -0 -0 -0 -0 -0 -0 -0 -0 -0 -0 -0 -0 -0 -0 -0 -0 -0 0 0 0 0 0 0 0 0 0 0 0 0 0 0 0
-0 -0 -0 -0 -0 -0 0 -0 -0 -0 0 -0 0 -0 0 0 0 -0 0 -0 -0 -0 -0 -0 -0 0 0 0 0 0 0 0 0 0 0 0 0 0 0 0 0 0 0
-0 -0 -0 -0 -0 -0 0 0 0 0 0 0 0 0 0 0 0 0 0 0 0 0 0 0 0 0 0 0 0 0 0 0 0 0 0 0 0 0 0 0 0 0 0
-0 -0 -0 -0 0 0 0 0 0 0 0 0 0 0 0 0 0 0 0 0 0 0 0 0 0 0 0 0 0 0 0 0 0 0 0 0 0 0 0 0 0 0 0
-0 -0 -0 -0 0 0 0 0 0 0 0 0 0 0 0 0 0 0 0 0 0 0 0 0 0 0 0 0 0 0 0 0 0 0 0 0 0 0 0 0 0 0 0
-0 -0 -0 -0 0 0 0 0 0 0 0 0 0 0 0 0 0 0 0 0 0 0 0 0 0 0 0 0 0 0 0 0 0 0 0 0 0 0 0 0 0 0 0
-0 -0 -0 -0 0 0 0 0 0 0 0 0 0 0 0 0 0 0 0 0 0 0 0 0 0 0 0 0 0 0 0 0 0 0 0 0 0 0 0 0 0 0 0
-0 -0 0 0 0 0 0 0 0 0 0 0 0 0 0 0 0 0 0 0 0 0 0 0 0 0 0 0 0 0 0 0 0 0 0 0 0 0 0 0 0 0 0
-0 -0 0 0 0 0 0 0 0 0 0 0 0 0 0 0 0 0 0 0 0 0 0 0 0 0 0 0 0 0 0 0 0 0 0 0 0 0 0 0 0 0 0
0 0 0 0 0 0 0 0 0 0 0 0 0 0 0 0 0 0 0 0 0 0 0 0 0 0 0 0 0 0 0 0 0 0 0 0 0 0 0 0 0 0 0
0 0 0 0 0 0 0 0 0 0 0 0 0 0 0 0 0 0 0 0 0 0 0 0 0 0 0 0 0 0 0 0 0 0 0 0 0 0 0 0 0 0 0
0 0 0 0 0 0 0 0 0 0 0 0 0 0 0 0 0 0 0 0 0 0 0 0 0 0 0 0 0 0 0 0 0 0 0 0 0 0 0 0 0 0 0
0 0 0 0 0 0 0 0 0 0 0 0 0 0 0 0 0 0 0 0 0 0 0 0 0 0 0 0 0 0 0 0 0 0 0 0 0 0 0 0 0 0 0
0 0 0 0 0 0 0 0 0 0 0 0 0 0 0 0 0 0 0 0 0 0 0 0 0 0 0 0 0 0 0 0 0 0 0 0 0 0 0 0 0 0 0
0 0 0 0 0 0 0 0 0 0 0 0 0 0 0 0 0 0 0 0 0 0 0 0 0 0 0 0 0 0 0 0 0 0 0 0 0 0 0 0 0 0 0
0 0 0 0 0 0 0 0 0 0 0 0 0 0 0 0 0 0 0 0 0 0 0 0 0 0 0 0 0 0 0 0 0 0 0 0 0 0 0 0 0 0 0
Wind_Speed_500mb
31 32 28 30 25 23 23 20 22 27 28 28 29 31 29 30 29 29 29 30 40 37 30 26 28 29 32 32 32 34 34 35 40 34 30 29 27 26 24 27 32 35 37
35 37 29 26 24 23 22 19 22 22 25 26 29 29 29 28 28 27 27 31 41 30 25 22 25 27 29 29 31 36 40 40 46 45 39 36 36 34 34 32 32 32 28
37 30 29 24 25 22 20 17 18 19 23 25 27 29 29 28 27 25 26 28 35 27 23 23 26 26 28 31 36 40 41 46 54 47 45 45 45 44 39 37 37 35 34
32 29 30 26 26 23 21 18 17 19 21 24 26 26 26 25 26 26 25 24 29 27 25 23 26 26 28 33 37 39 40 49 46 41 40 43 45 45 44 40 39 40 39
31 30 30 29 27 25 22 18 15 16 18 20 21 22 22 21 22 22 23 22 22 21 21 24 25 28 31 33 36 40 45 50 45 44 43 48 49 46 48 48 49 48 52
32 29 31 30 28 24 21 18 14 14 16 18 20 20 21 20 19 18 21 21 19 21 24 25 25 28 30 32 36 38 51 48 40 40 48 49 51 48 50 49 48 52 48
31 30 34 33 30 27 23 20 17 14 16 18 17 18 20 21 20 19 19 20 20 20 22 24 25 27 28 31 34 38 50 44 37 36 40 37 39 41 41 42 39 41 39
32 31 35 34 30 27 24 22 18 14 16 16 16 16 18 19 19 19 18 18 18 19 21 22 23 24 27 30 32 35 46 39 39 40 37 36 36 40 41 42 44 47 46
32 33 34 36 33 29 26 23 21 17 16 16 14 14 15 17 16 19 20 20 20 19 19 21 21 23 25 28 30 33 40 41 37 39 48 48 45 46 51 45 46 47 45
36 33 33 33 36 34 31 27 25 21 18 16 14 12 12 15 15 19 20 21 22 22 22 22 21 21 24 28 30 31 32 43 47 44 38 34 35 44 44 40 36 37 37
40 37 36 38 34 32 31 32 28 24 22 20 20 16 14 15 16 16 16 17 18 20 21 22 23 23 23 24 22 20 34 38 43 44 40 36 40 39 39 34 35 43 41
46 42 43 40 36 33 33 32 30 27 27 26 25 20 18 18 19 17 16 13 12 12 16 18 19 21 22 24 22 24 35 31 44 46 42 37 40 43 42 42 44 44 41
44 43 43 44 40 38 38 34 32 31 31 32 32 27 29 24 20 19 17 16 13 8 9 13 15 16 20 20 23 30 32 30 38 44 45 41 38 38 35 36 35 35 37
46 46 46 43 41 45 38 42 38 37 34 33 35 33 33 24 25 20 20 20 18 12 8 7 10 14 17 20 23 27 29 27 32 35 30 35 33 34 33 32 34 36 36
48 48 47 50 49 46 54 45 46 47 42 38 36 39 36 32 32 28 29 25 22 20 18 10 10 14 17 21 23 24 26 27 28 32 30 26 29 29 31 32 34 33 35
52 53 50 56 58 53 51 48 54 47 46 47 47 48 44 40 36 34 34 31 30 31 25 17 10 16 19 22 24 25 26 26 27 28 26 19 14 15 24 30 30 31 33
56 53 58 61 64 66 64 62 56 51 57 51 53 55 49 47 45 39 36 40 33 43 33 22 14 18 22 27 27 28 28 27 27 25 23 18 13 12 14 16 19 25 30
56 62 63 68 67 69 68 67 65 62 60 59 58 58 54 51 50 48 45 43 43 42 41 32 22 19 27 30 33 34 32 29 26 23 20 17 15 13 10 8 10 16 23
60 63 70 71 71 71 70 70 69 69 68 68 69 70 66 60 57 56 57 51 48 48 51 39 32 25 32 38 39 37 34 31 29 25 22 18 15 13 9 8 9 13 15
65 69 70 74 73 73 73 73 73 74 76 69 75 77 71 69 66 65 64 58 56 57 60 49 41 32 37 42 43 39 37 34 31 28 24 20 16 12 8 4 4 7 10
69 74 77 78 78 78 79 79 78 81 75 77 84 75 76 78 69 73 69 65 65 58 70 59 49 41 44 50 49 40 36 34 32 30 26 22 18 14 9 5 1 5 9
73 76 79 83 81 80 81 78 75 77 77 76 81 77 73 82 78 76 78 70 72 68 78 68 62 53 51 58 55 43 28 29 36 34 30 26 21 17 13 8 4 6 9
71 75 80 83 85 82 80 77 73 76 80 78 79 79 80 84 83 81 79 77 74 77 76 78 62 60 59 63 66 31 21 20 37 38 34 30 27 24 17 12 10 8 11
76 76 80 81 83 84 83 82 84 86 82 79 78 78 82 83 83 82 82 77 72 75 78 65 66 63 63 70 73 63 36 30 23 21 38 37 34 28 23 18 13 11 13
61 68 72 76 81 84 85 84 87 87 82 79 78 78 82 84 82 83 77 81 83 96 82 92 80 72 69 72 78 75 56 37 28 20 24 41 41 35 28 22 18 17 17
47 52 60 70 75 80 84 86 91 87 83 81 81 83 82 85 84 86 84 85 91 99 98 83 72 74 72 77 76 76 73 55 43 31 25 31 34 34 31 26 23 22 20
Wind_Direction_500mb
168 170 158 145 156 138 138 118 100 83 82 85 92 100 101 103 103 102 102 100 96 96 105 108 97 88 85 82 82 84 85 83 80 80 88 90 89 89 83 83 84 83 83
157 162 159 152 152 145 138 102 80 81 85 86 92 96 94 95 97 99 102 103 101 109 112 105 97 88 81 80 84 87 86 83 78 67 71 77 77 78 75 75 79 77 81
164 164 161 155 152 148 139 117 102 97 92 89 85 85 90 93 95 98 101 102 107 114 118 106 94 87 81 85 88 88 89 85 76 72 67 65 68 68 73 72 68 66 64
168 172 170 164 159 155 152 140 112 97 96 94 91 88 89 91 93 99 100 105 110 111 104 98 93 87 87 89 89 89 88 86 84 81 74 70 69 68 70 72 71 68 67
163 172 179 168 164 165 160 150 122 109 110 104 95 88 81 83 89 96 101 105 109 111 96 93 90 90 92 94 94 93 90 81 79 74 73 77 71 65 68 68 66 66 64
163 168 177 171 171 168 166 163 144 125 124 118 104 87 77 76 81 89 96 98 98 90 96 97 96 96 97 96 96 93 92 86 82 90 84 81 79 76 71 70 76 78 78
167 176 177 175 175 177 178 174 165 143 138 134 118 96 82 81 87 92 94 98 98 97 98 97 98 100 101 100 98 98 99 101 88 93 95 88 86 89 86 86 78 76 72
175 182 182 181 181 186 184 184 178 162 155 148 130 110 98 92 87 89 95 100 99 97 98 99 101 102 101 100 100 100 95 86 82 77 76 75 76 76 73 69 67 67 64
185 183 187 188 186 190 191 188 187 180 168 163 152 133 115 103 94 87 92 95 97 102 101 101 101 101 103 105 106 110 109 103 102 101 89 86 81 77 72 73 73 73 69
197 185 187 192 194 193 195 195 195 191 186 181 180 160 137 118 106 96 97 94 97 100 103 103 103 105 110 112 117 113 108 100 100 99 96 89 83 81 86 84 80 75 66
199 193 193 199 199 199 203 200 200 198 197 199 198 188 176 154 136 127 111 105 100 100 102 105 105 106 110 116 119 115 109 100 111 102 94 95 97 100 100 92 78 72 61
198 198 197 196 194 193 197 210 208 206 204 207 209 200 176 162 164 162 142 126 116 106 106 111 113 117 120 123 120 108 107 120 117 108 103 98 92 83 81 80 77 71 60
201 199 201 200 197 201 198 210 208 212 216 212 213 205 197 201 209 195 178 168 157 142 135 135 141 141 140 137 133 122 120 115 119 113 110 97 90 88 84 79 75 68 61
205 205 202 201 201 203 207 207 212 219 215 213 214 212 208 218 237 234 216 197 191 182 196 198 179 168 158 150 143 136 131 123 126 121 116 113 107 92 86 81 74 71 62
209 208 210 204 211 209 215 213 216 219 224 225 228 221 222 232 233 230 230 227 222 212 195 234 249 202 178 168 160 157 150 141 134 129 128 134 126 104 89 83 79 71 64
212 212 210 215 217 215 218 216 220 225 226 224 231 233 236 234 230 235 235 226 231 220 213 208 270 228 209 188 177 170 162 150 143 142 142 146 141 113 95 89 83 75 66
217 215 215 222 223 223 227 227 223 224 226 231 229 235 230 236 232 233 242 226 233 235 216 209 234 244 218 198 187 176 170 164 158 152 150 151 142 130 120 96 76 68 68
218 220 222 228 227 227 230 229 232 230 227 224 231 230 233 234 238 235 236 235 232 238 219 218 210 251 222 206 189 183 180 171 166 167 167 161 161 147 138 103 64 62 61
224 226 226 231 230 231 231 232 233 235 235 233 231 232 230 233 237 234 233 238 240 228 223 215 210 244 233 208 192 186 181 178 178 179 179 179 170 158 148 105 60 45 45
229 229 230 233 234 233 233 233 234 235 235 231 236 235 229 230 234 235 235 240 242 239 221 218 215 227 235 218 193 188 186 187 188 189 188 185 178 173 163 130 62 25 27
234 233 232 233 235 232 232 232 233 237 239 235 236 238 230 228 230 233 238 240 240 242 219 219 219 227 229 212 197 187 188 192 198 199 197 195 194 192 190 196 274 351 349
238 237 235 236 236 234 234 235 235 240 243 240 240 241 234 226 226 234 235 238 237 234 223 218 214 215 224 219 203 188 188 202 209 209 207 204 204 208 213 224 269 308 330
238 239 240 239 238 236 235 235 235 238 242 242 240 237 233 228 228 231 233 234 240 243 229 225 220 231 232 214 210 193 183 209 211 216 215 212 213 219 223 235 256 295 321
247 243 242 239 239 239 237 235 238 243 245 248 246 241 235 230 229 231 229 231 235 226 230 239 232 237 239 223 209 205 204 199 178 191 220 219 220 223 228 238 255 280 299
250 245 243 240 238 237 237 237 239 242 244 246 245 243 236 231 231 229 227 228 232 231 232 239 230 228 236 226 223 215 208 209 203 205 203 215 219 223 231 240 254 268 280
244 242 240 240 240 238 238 238 239 242 241 242 242 242 236 230 231 227 225 231 235 233 236 234 230 233 234 225 223 224 222 222 223 209 213 221 214 222 230 240 249 261 273
Wind_Speed_850mb
31 32 28 30 25 23 23 20 22 27 28 28 29 31 29 30 29 29 29 30 40 37 30 26 28 29 32 32 32 34 34 35 40 34 30 29 27 26 24 27 32 35 37
35 37 29 26 24 23 22 19 22 22 25 26 29 29 29 28 28 27 27 31 41 30 25 22 25 27 29 29 31 36 40 40 46 45 39 36 36 34 34 32 32 32 28
37 30 29 24 25 22 20 17 18 19 23 25 27 29 29 28 27 25 26 28 35 27 23 23 26 26 28 31 36 40 41 46 54 47 45 45 45 44 39 37 37 35 34
32 29 30 26 26 23 21 18 17 19 21 24 26 26 26 25 26 26 25 24 29 27 25 23 26 26 28 33 37 39 40 49 46 41 40 43 45 45 44 40 39 40 39
31 30 30 29 27 25 22 18 15 16 18 20 21 22 22 21 22 22 23 22 22 21 21 24 25 28 31 33 36 40 45 50 45 44 43 48 49 46 48 48 49 48 52
32 29 31 30 28 24 21 18 14 14 16 18 20 20 21 20 19 18 21 21 19 21 24 25 25 28 30 32 36 38 51 48 40 40 48 49 51 48 50 49 48 52 48
31 30 34 33 30 27 23 20 17 14 16 18 17 18 20 21 20 19 19 20 20 20 22 24 25 27 28 31 34 38 50 44 37 36 40 37 39 41 41 42 39 41 39
32 31 35 34 30 27 24 22 18 14 16 16 16 16 18 19 19 19 18 18 18 19 21 22 23 24 27 30 32 35 46 39 39 40 37 36 36 40 41 42 44 47 46
32 33 34 36 33 29 26 23 21 17 16 16 14 14 15 17 16 19 20 20 20 19 19 21 21 23 25 28 30 33 40 41 37 39 48 48 45 46 51 45 46 47 45
36 33 33 33 36 34 31 27 25 21 18 16 14 12 12 15 15 19 20 21 22 22 22 22 21 21 24 28 30 31 32 43 47 44 38 34 35 44 44 40 36 37 37
40 37 36 38 34 32 31 32 28 24 22 20 20 16 14 15 16 16 16 17 18 20 21 22 23 23 23 24 22 20 34 38 43 44 40 36 40 39 39 34 35 43 41
46 42 43 40 36 33 33 32 30 27 27 26 25 20 18 18 19 17 16 13 12 12 16 18 19 21 22 24 22 24 35 31 44 46 42 37 40 43 42 42 44 44 41
44 43 43 44 40 38 38 34 32 31 31 32 32 27 29 24 20 19 17 16 13 8 9 13 15 16 20 20 23 30 32 30 38 44 45 41 38 38 35 36 35 35 37
46 46 46 43 41 45 38 42 38 37 34 33 35 33 33 24 25 20 20 20 18 12 8 7 10 14 17 20 23 27 29 27 32 35 30 35 33 34 33 32 34 36 36
48 48 47 50 49 46 54 45 46 47 42 38 36 39 36 32 32 28 29 25 22 20 18 10 10 14 17 21 23 24 26 27 28 32 30 26 29 29 31 32 34 33 35
52 53 50 56 58 53 51 48 54 47 46 47 47 48 44 40 36 34 34 31 30 31 25 17 10 16 19 22 24 25 26 26 27 28 26 19 14 15 24 30 30 31 33
56 53 58 61 64 66 64 62 56 51 57 51 53 55 49 47 45 39 36 40 33 43 33 22 14 18 22 27 27 28 28 27 27 25 23 18 13 12 14 16 19 25 30
56 62 63 68 67 69 68 67 65 62 60 59 58 58 54 51 50 48 45 43 43 42 41 32 22 19 27 30 33 34 32 29 26 23 20 17 15 13 10 8 10 16 23
60 63 70 71 71 71 70 70 69 69 68 68 69 70 66 60 57 56 57 51 48 48 51 39 32 25 32 38 39 37 34 31 29 25 22 18 15 13 9 8 9 13 15
65 69 70 74 73 73 73 73 73 74 76 69 75 77 71 69 66 65 64 58 56 57 60 49 41 32 37 42 43 39 37 34 31 28 24 20 16 12 8 4 4 7 10
69 74 77 78 78 78 79 79 78 81 75 77 84 75 76 78 69 73 69 65 65 58 70 59 49 41 44 50 49 40 36 34 32 30 26 22 18 14 9 5 1 5 9
73 76 79 83 81 80 81 78 75 77 77 76 81 77 73 82 78 76 78 70 72 68 78 68 62 53 51 58 55 43 28 29 36 34 30 26 21 17 13 8 4 6 9
71 75 80 83 85 82 80 77 73 76 80 78 79 79 80 84 83 81 79 77 74 77 76 78 62 60 59 63 66 31 21 20 37 38 34 30 27 24 17 12 10 8 11
76 76 80 81 83 84 83 82 84 86 82 79 78 78 82 83 83 82 82 77 72 75 78 65 66 63 63 70 73 63 36 30 23 21 38 37 34 28 23 18 13 11 13
61 68 72 76 81 84 85 84 87 87 82 79 78 78 82 84 82 83 77 81 83 96 82 92 80 72 69 72 78 75 56 37 28 20 24 41 41 35 28 22 18 17 17
47 52 60 70 75 80 84 86 91 87 83 81 81 83 82 85 84 86 84 85 91 99 98 83 72 74 72 77 76 76 73 55 43 31 25 31 34 34 31 26 23 22 20
Wind_Direction_850mb
168 170 158 145 156 138 138 118 100 83 82 85 92 100 101 103 103 102 102 100 96 96 105 108 97 88 85 82 82 84 85 83 80 80 88 90 89 89 83 83 84 83 83
157 162 159 152 152 145 138 102 80 81 85 86 92 96 94 95 97 99 102 103 101 109 112 105 97 88 81 80 84 87 86 83 78 67 71 77 77 78 75 75 79 77 81
164 164 161 155 152 148 139 117 102 97 92 89 85 85 90 93 95 98 101 102 107 114 118 106 94 87 81 85 88 88 89 85 76 72 67 65 68 68 73 72 68 66 64
168 172 170 164 159 155 152 140 112 97 96 94 91 88 89 91 93 99 100 105 110 111 104 98 93 87 87 89 89 89 88 86 84 81 74 70 69 68 70 72 71 68 67
163 172 179 168 164 165 160 150 122 109 110 104 95 88 81 83 89 96 101 105 109 111 96 93 90 90 92 94 94 93 90 81 79 74 73 77 71 65 68 68 66 66 64
163 168 177 171 171 168 166 163 144 125 124 118 104 87 77 76 81 89 96 98 98 90 96 97 96 96 97 96 96 93 92 86 82 90 84 81 79 76 71 70 76 78 78
167 176 177 175 175 177 178 174 165 143 138 134 118 96 82 81 87 92 94 98 98 97 98 97 98 100 101 100 98 98 99 101 88 93 95 88 86 89 86 86 78 76 72
175 182 182 181 181 186 184 184 178 162 155 148 130 110 98 92 87 89 95 100 99 97 98 99 101 102 101 100 100 100 95 86 82 77 76 75 76 76 73 69 67 67 64
185 183 187 188 186 190 191 188 187 180 168 163 152 133 115 103 94 87 92 95 97 102 101 101 101 101 103 105 106 110 109 103 102 101 89 86 81 77 72 73 73 73 69
197 185 187 192 194 193 195 195 195 191 186 181 180 160 137 118 106 96 97 94 97 100 103 103 103 105 110 112 117 113 108 100 100 99 96 89 83 81 86 84 80 75 66
199 193 193 199 199 199 203 200 200 198 197 199 198 188 176 154 136 127 111 105 100 100 102 105 105 106 110 116 119 115 109 100 111 102 94 95 97 100 100 92 78 72 61
198 198 197 196 194 193 197 210 208 206 204 207 209 200 176 162 164 162 142 126 116 106 106 111 113 117 120 123 120 108 107 120 117 108 103 98 92 83 81 80 77 71 60
201 199 201 200 197 201 198 210 208 212 216 212 213 205 197 201 209 195 178 168 157 142 135 135 141 141 140 137 133 122 120 115 119 113 110 97 90 88 84 79 75 68 61
205 205 202 201 201 203 207 207 212 219 215 213 214 212 208 218 237 234 216 197 191 182 196 198 179 168 158 150 143 136 131 123 126 121 116 113 107 92 86 81 74 71 62
209 208 210 204 211 209 215 213 216 219 224 225 228 221 222 232 233 230 230 227 222 212 195 234 249 202 178 168 160 157 150 141 134 129 128 134 126 104 89 83 79 71 64
212 212 210 215 217 215 218 216 220 225 226 224 231 233 236 234 230 235 235 226 231 220 213 208 270 228 209 188 177 170 162 150 143 142 142 146 141 113 95 89 83 75 66
217 215 215 222 223 223 227 227 223 224 226 231 229 235 230 236 232 233 242 226 233 235 216 209 234 244 218 198 187 176 170 164 158 152 150 151 142 130 120 96 76 68 68
218 220 222 228 227 227 230 229 232 230 227 224 231 230 233 234 238 235 236 235 232 238 219 218 210 251 222 206 189 183 180 171 166 167 167 161 161 147 138 103 64 62 61
224 226 226 231 230 231 231 232 233 235 235 233 231 232 230 233 237 234 233 238 240 228 223 215 210 244 233 208 192 186 181 178 178 179 179 179 170 158 148 105 60 45 45
229 229 230 233 234 233 233 233 234 235 235 231 236 235 229 230 234 235 235 240 242 239 221 218 215 227 235 218 193 188 186 187 188 189 188 185 178 173 163 130 62 25 27
234 233 232 233 235 232 232 232 233 237 239 235 236 238 230 228 230 233 238 240 240 242 219 219 219 227 229 212 197 187 188 192 198 199 197 195 194 192 190 196 274 351 349
238 237 235 236 236 234 234 235 235 240 243 240 240 241 234 226 226 234 235 238 237 234 223 218 214 215 224 219 203 188 188 202 209 209 207 204 204 208 213 224 269 308 330
238 239 240 239 238 236 235 235 235 238 242 242 240 237 233 228 228 231 233 234 240 243 229 225 220 231 232 214 210 193 183 209 211 216 215 212 213 219 223 235 256 295 321
247 243 242 239 239 239 237 235 238 243 245 248 246 241 235 230 229 231 229 231 235 226 230 239 232 237 239 223 209 205 204 199 178 191 220 219 220 223 228 238 255 280 299
250 245 243 240 238 237 237 237 239 242 244 246 245 243 236 231 231 229 227 228 232 231 232 239 230 228 236 226 223 215 208 209 203 205 203 215 219 223 231 240 254 268 280
244 242 240 240 240 238 238 238 239 242 241 242 242 242 236 230 231 227 225 231 235 233 236 234 230 233 234 225 223 224 222 222 223 209 213 221 214 222 230 240 249 261 273